Location: Hilton Head Island
(32.2163°N, 80.7526°W)
Time: 21:19:24
(UTC-05:00)

Explorer 7 - Pass Details

Date: 20 February 2026
Orbit: 430 x 542 km, 50.2° (Epoch: 5 March)

Event Time Altitude Azimuth Distance (km) Brightness Sun altitude
Rises 21:53:22 0° 299° (WNW) 2,590 - -46.7°
Reaches altitude 10° 21:55:46 10° 286° (WNW) 1,724 - -47.1°
Maximum altitude 21:59:03 25° 230° (SW) 1,060 - -47.8°
Drops below altitude 10° 22:02:23 10° 173° (S) 1,764 - -48.4°
Sets 22:04:54 0° 160° (SSE) 2,665 - -48.9°
